Location: Seven Kings
(51.5667°N, 0.1000°E)
Time: 23:04:42
(UTC+00:00)

X-37B - Pass Details

Date: 18 June 2021
Orbit: 383 x 392 km, 45.0° (Epoch: 01 July)

Event Time Altitude Azimuth Distance (km) Brightness Sun altitude
Exits shadow 00:48:16 15° 132° (SE) 1,164 2.7 -14.3°
Drops below altitude 10° 00:49:13 10° 118° (ESE) 1,406 3.2 -14.3°
Sets 00:51:40 0° 99° (E) 2,263 4.5 -14.2°
